Showing default

TIMATION 1, 2847

Orbit data source: Space-Track

TIMATION 1, 2847 is a payload satellite owned by NRL (US) in LEO that was launched on Wed, 31 May 1967 UTC via a THOR SLV-2 AGENA D launch vehicle from the Air Force Western Test Range (AFWTR). Payloads include a variety of satellites, spacecraft, and rockets equipped with specific instruments for various scientific and technological missions. These include communications satellites like Starlink; space stations such as the ISS; scientific satellites like the Hubble; Earth observation satellites from companies like Planet Labs, Umbra, and HawkEye 360; GPS; miniature CubeSats for education and research; and military/defense satellites.

Loading next visibility...
TIMATION 1 details
Identifier
2847, 1967-053E
Orbit
LEO
Last TLE update7 hours ago
Origin
Flag of USNRL (US)
ManufacturerNRL
MissionDefense Navigation
Bus & MotorTIMATION, Unknown motor
Mass39 kg wet, 39 kg dry
Launch date (UTC)
1967-05-31 (58 years ago)
Launch vehicle
THOR SLV-2 AGENA D
Launch site
Air Force Western Test Range (AFWTR)
Object type
Payload
Rocket body
Debris
Shape & HBRBox, 0.8 m
Radar Cross Section0.285 m², Medium (>0.1 m² and < 1m²)

Expand to show TLE details & history

TLE from 7 hours ago
0 TIMATION 1
1 02847U 67053E   25044.51001012  .00000358  00000-0  26698-3 0  9997
2 02847  69.9646 185.6481 0007504 321.0638  38.9929 14.02688478945258
Epoch: 2025-02-13T12:14Z
Definitive object data (Epoch: 2025-02-13T12:14:24.874Z)
Latitude-0.00008°
Longitude-141.74067°
Altitude882.583 km
Speed7.413 km/s
True Right ascension12h 22m 35s
True Declination0° 00' 00"
Sunlit
Object was in full shadow at TLE epoch
Visualization TLE readout
Latitude-43.85902°
Longitude-162.73878°
Altitude895.369 km
Speed7.406 km/s
Apparent Right ascension10h 14m 37s
Apparent Declination-42° 24' 20"
Sunlit
Object is in full shadow
Visualization observer readout
Local Sidereal Time21:27:25
Azimuth250.506° W
Elevation-80.784°
Doppler factor1
Orbital elements
Apogee altitude887.989 km
Perigee altitude877.092 km
Semi-major axis7,260.678 km
Eccentricity0.0007504
Inclination69.9646°
RAAN185.6481°
Arg. of periapsis321.0638°
True anomaly39.04705°
Mean anomaly38.9929°
Eccentric anomaly39.01997°
Mean motion3.50814 °/min
BSTAR0.00026698
Orbital period102.62 mins
Loading maneuver chart data...
Loading historical data...
Loading historical data...
Loading historical data...
Loading historical data...
Loading historical data...
Loading historical data...
Loading historical data...

TIMATION 1 Visibility forecast

Observer location: undefined°, undefined

Span
Click to sort rows by Start time (UTC) header in descending order
Start Az.
Max El. time (UTC)
Max El. Az.
Max El.
End time (UTC)
End Az.
10 mins2025-02-13 19:37:40.186Z350.972° N2025-02-13 19:42:40.186Z52.139° ENE31.456°2025-02-13 19:47:40.186Z122.123° SE
8 mins2025-02-13 21:24:40.186Z303.47° NW2025-02-13 21:27:40.186Z259.607° W27.886°2025-02-13 21:32:40.186Z196.038° SSW
10 mins2025-02-14 10:36:40.186Z198.777° SSW2025-02-14 10:41:40.186Z76.426° E44.588°2025-02-14 10:46:40.186Z26.62° NE
6 mins2025-02-14 12:24:40.186Z281.698° WNW2025-02-14 12:27:40.186Z316.618° NNW16.343°2025-02-14 12:30:40.186Z349.045° N
|